GFSNW_925_spd_096.txt.gz
Wind_Speed
5 3 3 4 7 10 7 2 0 6 9 2 3 7 11 14 13 13 7 6 11 13 14 7 3 3 10 9 4 6 1 6 13 9 2 6 5 6 6 4 4 2 2 1
6 3 3 2 5 7 3 2 2 2 5 4 6 10 11 12 13 13 6 7 6 14 7 5 8 5 15 15 8 2 0 9 10 9 9 7 6 7 6 7 2 4 2 4
6 4 3 2 2 3 3 1 1 1 1 0 8 12 9 16 14 7 7 10 7 6 4 10 11 12 15 15 16 16 4 3 2 5 9 10 9 8 5 2 2 2 5 11
7 5 4 2 1 1 0 2 2 3 3 3 9 8 5 15 14 7 8 4 14 11 7 12 13 13 13 18 18 12 6 12 13 14 12 10 9 6 4 4 3 4 6 12
6 6 5 3 3 3 1 2 1 1 5 6 8 4 4 10 14 7 12 14 18 11 9 10 13 14 9 9 7 2 8 4 5 10 8 6 4 2 2 3 3 5 6 6
11 9 7 5 4 8 2 1 1 3 3 5 5 4 8 9 11 6 9 14 15 10 15 18 16 12 11 8 7 8 3 1 2 4 3 2 5 7 3 4 5 6 7 11
10 10 9 6 8 10 6 3 3 2 3 4 6 9 11 11 12 10 12 12 11 11 22 17 6 6 5 3 6 2 3 3 3 2 2 3 6 5 8 5 8 11 11 12
12 11 12 7 6 10 9 7 3 2 4 5 5 7 6 9 7 7 8 11 12 16 13 5 3 2 2 4 13 4 6 2 3 1 2 6 7 9 8 6 6 14 14 15
13 13 8 7 8 6 10 10 8 2 4 1 4 7 6 6 8 8 4 10 11 11 3 3 4 3 3 4 3 7 4 4 1 1 2 2 6 11 10 8 3 13 14 16
13 14 11 9 11 7 8 7 14 3 3 3 4 5 6 4 5 5 6 11 7 10 6 3 4 3 4 2 2 4 3 3 4 3 3 5 11 16 16 4 6 10 11 12
13 11 12 9 12 9 7 3 16 9 3 6 6 6 7 6 5 4 8 4 3 5 5 4 4 3 5 2 5 4 4 3 2 1 1 2 17 7 6 6 10 9 10 9
14 14 14 10 12 11 8 4 12 17 3 4 6 13 17 15 10 6 2 2 4 4 4 5 3 2 3 4 1 6 2 4 4 5 3 4 8 8 7 9 8 8 8 8
13 14 13 10 12 13 11 6 7 7 1 6 6 6 7 12 18 14 3 2 2 2 1 3 2 4 3 2 3 4 3 4 1 3 5 7 9 9 9 10 10 10 9 8
14 15 13 12 13 13 12 11 11 6 0 3 2 2 6 3 8 17 18 9 5 4 2 2 2 3 1 2 4 3 4 6 4 5 7 5 11 11 9 9 8 8 9 9
13 12 13 13 12 12 11 13 12 14 4 2 4 13 4 3 5 10 14 12 7 4 3 2 2 2 2 2 3 1 4 3 3 3 3 5 5 7 8 9 9 8 7 8
16 12 13 14 14 13 8 2 15 19 13 2 3 2 1 2 4 7 11 9 5 3 3 2 3 4 3 3 2 4 4 5 6 3 5 9 8 6 6 7 7 7 7 7
14 14 14 18 19 17 5 2 2 14 19 2 3 3 3 4 6 3 4 6 3 3 2 3 3 3 3 2 2 6 6 5 6 5 7 5 1 3 4 6 7 8 9 9
12 14 17 21 24 23 14 12 1 19 6 2 2 2 3 7 3 4 3 3 3 4 3 1 3 2 2 2 5 5 3 5 5 5 5 7 6 5 4 3 3 5 6 7
11 12 11 14 6 5 7 11 13 8 3 2 2 3 1 4 2 2 3 4 3 1 3 3 3 2 3 3 6 5 3 2 2 4 4 4 4 5 5 4 5 5 6 7
10 6 3 3 8 22 22 8 3 2 2 3 3 2 3 4 3 3 4 2 3 3 4 2 3 3 4 4 6 5 4 4 4 5 2 2 2 3 5 5 6 7 8 8
5 4 2 14 33 7 2 3 4 4 3 4 4 6 4 3 3 3 3 2 2 2 3 3 3 3 4 6 5 5 5 6 7 7 5 4 3 3 4 5 6 7 7 7
7 7 9 8 3 2 4 5 4 5 4 5 4 5 4 3 1 2 3 2 2 3 4 3 3 3 7 6 6 5 5 6 6 5 5 6 6 5 6 6 7 8 8 7
9 3 4 3 2 5 7 8 4 4 5 6 6 5 4 2 2 1 3 4 2 1 3 2 3 7 6 6 6 6 6 7 7 8 8 8 9 9 9 10 8 8 8 7
3 4 6 4 5 6 4 7 4 2 4 8 7 4 3 2 3 1 3 2 2 3 3 1 4 8 7 6 5 7 7 9 10 9 9 10 10 10 8 8 7 8 8 6
2 3 4 5 2 2 2 3 4 2 8 7 5 3 2 2 2 1 1 3 3 3 1 3 6 9 7 6 7 7 7 8 9 9 9 9 9 9 8 6 7 7 7 6
1 2 3 3 4 3 4 3 3 3 7 3 2 3 3 3 2 3 4 2 2 3 3 5 8 8 7 7 7 9 9 10 10 9 10 10 9 9 9 7 6 5 5 5
2 2 1 2 3 4 3 1 2 0 5 2 2 4 2 3 2 3 2 1 2 5 6 6 7 8 8 9 9 9 9 9 8 8 7 7 6 5 4 3 3 3 3 3

GFSNW_925_spd_102.txt.gz
Wind_Speed
11 10 7 5 3 3 5 3 2 3 3 3 3 3 9 10 12 13 11 6 9 6 9 8 6 13 8 27 20 10 10 3 2 12 19 15 7 7 13 4 1 5 3 5
12 10 7 4 3 2 7 2 2 4 3 1 3 7 7 9 13 10 10 7 7 6 4 7 8 15 19 21 16 12 10 3 1 4 3 8 6 11 12 8 5 2 1 3
13 10 6 5 4 2 3 1 1 3 1 4 5 7 6 10 9 7 11 10 11 10 4 12 9 15 8 18 18 19 8 4 6 4 3 10 1 4 2 2 3 5 6 6
11 10 7 4 3 0 3 2 3 3 2 2 4 6 5 9 9 8 8 8 17 15 6 13 11 19 13 14 20 12 6 4 6 8 13 10 7 12 5 10 8 3 9 12
11 10 7 4 4 1 5 3 3 3 5 4 6 1 3 8 10 11 10 13 19 17 14 13 20 22 13 6 11 10 10 4 11 5 19 16 18 8 10 6 14 14 19 14
13 11 6 5 6 2 1 1 2 3 4 3 3 3 6 11 12 6 11 15 16 13 19 19 20 16 10 11 1 6 9 5 6 9 14 9 13 15 16 20 21 19 14 9
12 9 7 5 7 7 3 3 1 1 4 4 3 6 8 10 10 10 12 12 12 15 20 21 15 8 4 6 4 2 6 9 2 3 4 5 7 19 16 21 20 20 17 16
11 10 9 7 6 6 2 2 1 2 4 8 3 5 7 9 9 7 12 9 14 15 16 9 7 1 8 7 4 5 5 5 4 3 4 12 9 16 14 7 14 20 16 13
12 10 11 9 5 5 3 3 1 2 3 2 7 7 9 7 9 8 11 10 15 11 9 5 4 2 4 4 2 9 7 7 3 2 4 0 7 20 19 14 6 16 14 14
12 11 10 9 7 6 5 1 1 1 2 4 7 6 7 8 10 8 10 15 9 11 5 4 5 3 9 6 8 9 8 5 7 5 4 5 15 21 16 4 5 11 12 13
13 14 12 8 5 7 4 1 2 1 3 8 9 6 7 7 8 7 12 7 5 5 7 5 5 4 5 5 13 10 8 6 5 6 6 4 22 7 7 3 5 8 10 10
14 12 14 11 7 9 7 1 2 1 2 6 14 15 17 16 14 8 8 6 6 5 4 5 4 3 4 7 3 10 4 5 3 5 3 3 9 9 7 6 6 5 7 8
16 12 10 11 7 9 10 2 6 3 1 7 10 7 5 7 8 8 5 4 5 3 2 2 2 4 4 5 4 3 4 8 3 5 6 7 8 8 8 7 5 6 8 8
14 15 10 13 8 7 11 8 5 3 3 3 2 1 2 2 4 6 11 11 10 7 3 3 1 3 5 4 5 5 5 5 4 5 8 9 8 7 7 7 7 7 8 9
15 15 12 11 8 7 8 10 10 10 4 3 6 13 12 3 5 6 7 8 7 6 3 2 3 3 4 4 2 5 6 3 2 2 3 3 4 4 6 6 7 8 9 8
15 14 12 12 7 8 6 2 11 14 8 3 3 0 6 5 3 6 6 5 4 4 3 4 3 4 3 3 2 3 4 7 4 3 5 7 5 3 1 7 8 9 10 12
14 12 11 7 9 11 5 1 4 3 12 2 4 2 3 0 2 1 1 2 0 2 3 3 6 6 2 2 2 5 4 7 8 4 6 5 4 4 5 5 5 6 11 12
14 11 8 6 7 7 8 10 1 12 5 3 3 3 4 7 3 2 3 2 1 2 3 3 5 4 2 1 8 7 5 6 5 4 5 6 4 4 6 6 7 5 9 10
15 11 7 5 3 3 3 6 6 4 3 2 3 3 2 3 3 2 3 3 3 4 4 3 2 2 2 4 2 8 6 3 5 3 4 6 6 6 8 9 9 9 9 10
15 9 4 3 8 9 14 6 3 2 3 3 3 4 4 4 4 2 3 2 3 3 6 2 2 3 8 6 7 7 4 4 6 3 3 2 3 5 7 8 9 9 8 9
9 4 3 6 20 8 3 3 3 4 3 4 4 8 6 4 4 4 4 3 3 2 3 2 3 3 3 4 6 6 6 6 7 8 8 9 8 5 6 7 9 10 11 10
10 3 3 6 3 3 5 6 4 5 4 5 5 4 4 1 1 3 2 1 2 2 3 1 2 3 7 7 7 7 9 9 9 10 10 10 10 9 10 11 11 10 8 7
2 1 3 3 4 6 6 8 4 5 3 4 4 3 2 3 2 1 1 2 2 2 1 1 3 7 7 7 7 9 9 8 10 11 12 12 13 13 11 10 8 8 7 6
2 3 5 5 5 5 4 5 4 3 4 5 5 3 2 2 2 0 2 1 2 2 3 3 4 9 8 8 7 7 6 9 11 10 11 10 10 11 10 9 7 6 6 5
3 3 5 6 2 5 4 4 4 3 5 6 5 2 1 2 2 3 2 2 3 2 3 3 6 9 8 7 7 7 7 6 8 9 9 8 7 7 7 6 6 4 4 4
3 4 2 3 4 2 1 5 3 0 5 5 1 3 2 2 2 3 3 3 1 3 3 5 7 8 8 8 7 8 8 8 9 8 7 7 5 3 5 3 2 1 0 1
3 1 2 3 4 4 2 3 2 2 4 2 2 2 2 3 3 3 1 2 3 6 5 5 8 7 8 9 9 8 8 8 8 7 6 4 2 3 5 7 7 6 8 6

GFSNW_925_spd_105.txt.gz
Wind_Speed
16 12 10 5 5 4 6 4 2 8 3 3 2 2 3 6 8 5 5 5 4 2 7 6 4 3 4 20 20 6 5 4 3 2 5 5 7 5 1 2 3 1 2 4
15 13 9 5 4 2 5 2 3 5 3 2 3 4 3 4 8 6 4 3 5 1 3 5 5 4 9 14 17 11 5 2 3 2 2 4 2 6 9 2 3 3 2 3
14 11 8 5 4 2 4 2 2 0 1 2 2 3 3 5 8 5 5 4 6 2 4 5 7 6 7 17 12 15 7 4 4 5 5 2 4 4 3 7 1 2 6 9
14 11 7 5 5 3 3 2 3 3 2 2 1 3 1 4 4 5 6 4 10 9 2 7 4 7 18 12 12 9 4 7 9 7 11 15 9 13 8 7 9 2 10 16
13 12 7 5 5 4 3 3 1 1 2 1 5 3 3 3 5 5 6 7 12 9 5 4 19 18 12 5 10 7 8 4 5 15 14 12 13 18 23 20 13 15 16 12
13 11 7 6 5 3 3 3 2 3 3 1 3 1 3 6 7 4 8 9 7 7 10 15 20 18 15 13 5 2 2 5 6 3 6 10 13 18 21 21 21 14 11 6
13 11 6 5 5 1 4 5 4 3 3 2 2 4 3 6 7 7 7 6 5 7 15 16 11 2 8 12 9 6 3 2 3 1 5 5 8 14 19 23 22 19 13 10
14 9 7 6 5 5 3 6 4 2 1 3 7 4 5 7 8 7 6 11 7 8 8 4 4 3 4 2 10 3 4 2 3 2 3 7 12 13 10 5 13 18 14 8
13 10 10 8 4 6 3 7 4 2 3 3 9 4 7 3 5 7 6 14 13 7 2 3 3 3 4 1 7 10 7 6 3 1 3 5 6 20 15 5 8 14 14 12
14 12 11 8 4 5 4 3 4 3 2 3 5 4 2 4 4 2 4 9 7 6 3 3 3 3 7 5 7 7 5 4 6 6 4 2 14 20 13 3 3 6 10 12
15 12 11 9 8 7 4 6 4 2 2 5 5 6 4 5 4 2 5 5 5 5 6 4 3 3 4 2 4 4 4 4 4 4 4 3 20 7 6 2 5 8 9 9
13 14 14 8 6 9 6 3 3 3 3 4 9 18 19 13 5 1 4 0 4 3 3 3 3 3 4 5 3 7 4 3 2 5 4 4 9 10 8 6 4 3 4 7
14 14 13 10 5 8 6 5 4 5 2 4 1 5 3 8 12 8 2 2 4 3 4 2 2 2 3 3 2 3 4 4 3 2 5 8 9 9 8 6 6 4 6 5
14 13 12 11 6 7 8 2 2 2 1 1 3 7 1 5 6 8 9 5 4 3 1 1 1 1 2 2 2 3 3 4 4 4 8 8 8 8 7 7 7 6 9 11
13 13 8 12 8 4 7 6 5 6 2 2 4 15 12 9 13 5 5 3 2 1 3 1 2 2 3 3 3 3 4 3 1 2 4 4 3 3 3 6 7 9 10 13
13 14 12 11 7 6 5 2 6 12 6 2 3 5 3 5 3 4 5 5 2 1 0 2 3 2 2 1 2 3 3 5 4 3 5 7 5 3 4 7 6 12 12 13
15 15 11 10 6 10 1 1 3 4 9 0 3 3 5 5 4 2 2 3 1 2 1 2 2 3 2 1 2 4 6 7 7 6 7 5 5 4 6 6 9 18 18 19
15 15 12 8 6 5 4 5 4 10 3 1 2 3 1 2 1 1 2 2 2 1 2 3 2 3 1 2 7 7 6 8 6 5 5 6 8 13 13 18 17 13 11 14
16 14 10 7 3 2 2 3 2 2 1 1 2 2 1 2 2 2 1 2 1 2 2 3 2 2 3 3 5 8 7 5 5 5 8 8 9 11 11 9 9 9 8 11
18 11 3 1 5 8 13 3 1 1 2 2 3 2 2 3 1 1 2 1 2 1 4 1 3 2 3 8 7 6 7 9 9 3 5 5 8 8 8 7 9 11 11 12
6 3 3 3 14 7 2 2 3 3 3 4 4 5 3 1 2 2 3 2 2 1 1 3 2 3 2 8 9 9 12 11 12 14 12 13 8 8 8 9 13 13 12 11
9 7 3 8 3 2 4 4 2 4 4 3 4 3 3 1 1 2 2 2 2 2 1 2 1 3 7 9 9 8 12 14 15 17 16 17 17 16 15 12 12 12 10 9
5 1 2 3 3 5 5 7 3 4 2 2 2 1 3 3 2 1 1 1 3 1 1 2 2 7 7 8 8 9 14 17 17 15 15 15 15 14 14 14 12 11 9 6
1 3 4 3 4 4 4 4 4 4 4 4 3 2 3 2 2 1 2 3 2 1 1 2 4 8 8 8 7 8 5 12 13 13 14 13 13 13 11 10 8 6 5 4
1 2 4 5 3 1 2 1 3 1 3 3 3 2 3 1 2 2 1 1 2 3 2 2 5 8 8 8 7 6 5 11 11 12 11 10 10 10 9 7 5 5 4 2
2 3 3 2 3 0 2 2 3 1 2 2 2 2 2 2 2 2 4 1 1 2 2 4 7 7 7 6 8 12 10 11 13 11 10 8 7 7 8 4 1 1 2 3
3 2 2 3 1 2 1 3 1 1 3 2 2 3 4 2 1 2 2 1 2 5 5 5 8 7 6 11 11 11 11 12 12 11 9 6 3 4 4 6 7 6 7 9

GFSNW_925_spd_111.txt.gz
Wind_Speed
50 45 35 31 29 26 19 6 4 14 14 2 0 3 4 2 2 1 0 3 5 5 2 2 2 6 4 9 12 11 5 4 5 8 4 4 2 8 4 2 1 2 3 4
45 39 34 30 29 28 12 4 3 5 5 3 1 3 3 2 2 1 2 2 4 2 4 1 5 4 8 12 10 4 5 4 6 6 1 1 2 6 6 4 2 4 1 3
41 35 31 27 28 23 8 4 3 2 2 1 6 4 3 3 0 2 2 3 4 1 2 4 5 4 8 13 3 13 3 4 3 7 12 10 7 6 2 3 2 8 7 10
38 32 28 25 26 20 5 2 3 4 4 3 5 4 4 4 1 1 1 1 1 2 2 4 5 6 7 6 4 7 2 3 4 11 14 15 20 17 5 10 11 7 9 11
33 29 24 23 22 17 4 4 4 2 4 5 6 4 6 7 3 3 2 2 5 3 4 7 13 8 0 7 5 6 4 4 2 4 16 20 18 22 22 17 11 10 12 9
29 24 22 21 19 11 4 3 2 4 2 4 5 5 6 7 5 1 4 2 1 3 6 7 15 14 15 13 9 4 3 3 3 2 7 5 11 16 17 14 20 7 7 5
26 23 20 18 14 7 7 4 4 4 1 3 4 7 3 5 2 3 1 2 1 4 8 12 9 8 10 9 12 11 4 5 2 2 1 5 2 11 8 18 16 14 11 9
25 21 20 18 14 12 16 7 3 3 3 2 4 7 6 3 4 2 3 1 2 6 5 4 5 4 5 3 4 4 4 2 2 2 5 5 3 7 6 6 9 14 5 5
24 21 21 19 16 17 19 14 8 5 6 1 0 4 2 3 1 4 2 4 5 6 2 2 2 2 3 4 8 3 4 9 2 3 3 2 4 15 9 4 4 10 9 9
22 21 21 19 15 14 15 10 8 6 4 2 2 3 4 4 2 2 2 5 6 4 3 2 2 2 2 3 5 5 4 3 6 4 3 4 11 11 4 2 2 5 8 8
21 21 21 19 16 15 13 12 10 5 3 1 2 1 4 2 3 3 3 3 4 4 4 2 2 2 2 2 2 3 4 3 3 2 3 2 14 4 3 4 4 6 7 8
22 19 19 18 16 14 14 7 10 9 5 3 0 1 4 3 7 4 1 3 1 2 3 1 1 2 3 3 1 4 3 3 2 4 3 3 5 9 8 6 6 4 7 7
22 19 18 18 14 12 14 13 8 7 3 3 3 3 5 7 11 5 3 2 2 1 3 3 2 1 1 3 2 1 3 4 3 2 4 7 7 7 6 5 8 9 5 6
22 19 17 18 16 16 14 14 11 8 5 3 2 6 3 1 10 11 5 3 2 3 2 1 2 1 0 2 2 2 2 5 3 4 6 6 6 4 5 10 11 12 13 12
20 19 16 17 17 16 17 16 12 10 4 3 1 6 5 3 9 9 7 3 2 2 2 2 1 2 2 1 2 2 3 3 1 1 4 3 3 1 5 7 7 8 9 9
22 19 16 15 15 14 6 3 7 4 5 3 2 3 4 3 9 7 4 4 2 2 2 2 2 3 2 2 1 2 3 6 2 2 4 5 5 2 7 8 8 11 11 10
19 20 16 14 14 11 7 3 3 4 6 3 2 3 3 2 4 2 2 3 2 2 1 1 1 2 2 1 1 5 6 8 7 7 6 6 5 3 12 14 13 15 14 13
21 19 16 15 14 12 7 7 6 9 6 4 2 0 1 3 2 1 1 2 2 3 1 1 1 2 2 2 5 8 8 8 6 5 8 8 10 11 11 11 10 8 7 8
21 18 17 12 5 4 5 11 10 5 4 2 2 3 2 2 2 1 2 2 2 1 0 2 2 1 2 2 4 6 4 3 10 9 12 10 10 8 6 6 5 7 5 7
22 11 4 3 3 13 9 4 3 2 2 1 0 0 1 3 1 1 1 1 1 0 3 2 2 2 4 4 5 6 5 5 8 8 5 5 5 7 6 6 7 7 6 7
3 3 2 5 13 3 3 2 1 1 1 2 2 3 2 1 3 2 1 2 0 0 2 3 2 3 2 4 6 5 8 10 9 7 5 6 8 8 8 7 9 8 8 7
6 13 8 5 2 2 2 2 0 2 3 3 4 4 3 1 2 3 1 1 2 2 0 1 2 2 5 6 8 7 8 11 11 11 11 12 12 11 11 9 9 8 8 6
6 5 3 2 1 2 5 5 3 2 3 3 2 2 3 2 3 2 1 3 3 1 2 3 3 5 6 7 8 7 10 12 11 11 12 12 11 9 10 12 10 9 7 4
3 2 4 2 3 3 4 3 3 4 3 3 3 2 2 1 3 2 3 3 1 1 0 4 3 6 8 7 6 6 4 9 10 10 12 12 13 13 11 9 7 4 2 1
2 2 2 4 3 3 2 2 1 1 2 3 3 3 2 1 3 1 1 0 3 4 4 3 3 7 8 7 5 6 6 9 10 12 13 13 12 10 8 5 2 0 1 2
1 0 1 2 2 1 1 1 1 1 2 2 3 2 3 1 4 2 4 2 5 3 2 2 6 7 5 5 6 11 14 14 13 13 12 10 8 6 3 2 0 2 4 5
1 1 1 2 3 3 1 1 1 1 3 2 2 3 5 1 1 2 3 4 3 2 2 2 4 9 7 10 14 16 15 14 14 12 10 7 5 3 4 6 5 6 7 9

GFSNW_925_spd_114.txt.gz
Wind_Speed
72 69 64 57 55 45 35 10 3 18 23 3 1 4 5 4 4 3 2 4 4 5 4 3 2 5 5 1 5 9 2 5 6 12 18 5 3 4 4 3 2 2 2 3
71 68 63 59 57 51 18 5 3 8 2 4 2 2 4 2 3 4 5 5 4 3 6 1 5 4 5 4 4 2 4 4 6 7 1 2 3 4 8 7 4 4 3 3
66 63 59 58 58 51 16 4 4 1 1 2 6 6 4 4 2 3 3 3 4 2 1 4 3 3 3 7 3 5 7 3 5 5 5 7 7 9 2 1 3 4 7 9
65 63 59 53 55 33 9 2 4 5 5 3 5 5 6 5 4 3 4 2 4 4 1 3 3 4 5 4 2 3 3 3 3 7 9 11 21 16 14 15 9 6 6 9
57 53 50 50 44 24 5 4 4 3 3 9 7 5 5 6 4 5 3 4 1 4 5 6 4 3 2 5 4 6 1 3 3 3 3 5 17 21 18 13 12 11 11 8
47 41 39 38 34 18 4 3 4 5 2 4 5 5 6 7 7 5 5 5 3 4 6 4 8 9 8 8 3 3 3 3 3 1 6 9 4 10 14 11 18 5 5 4
40 36 33 34 30 8 8 4 4 4 3 5 5 7 4 7 6 6 3 3 3 2 5 7 7 6 7 7 9 9 3 4 2 2 1 4 2 7 6 17 14 11 10 7
34 31 29 28 23 12 21 6 4 3 4 4 5 9 6 6 4 3 3 1 1 4 3 3 4 3 2 3 4 6 11 3 3 1 2 3 2 7 6 6 8 12 6 2
32 31 27 23 21 20 20 17 11 5 7 2 6 6 4 4 3 2 0 2 3 4 2 2 1 1 2 2 3 5 5 2 3 1 1 2 4 11 7 6 4 10 9 8
32 31 29 28 24 19 19 11 10 8 4 1 3 4 5 4 4 3 2 3 5 3 2 2 2 2 2 1 3 3 3 2 4 4 3 3 8 10 5 2 1 7 8 8
30 28 24 23 21 19 15 13 11 6 3 2 2 2 5 3 3 3 3 3 4 3 3 1 1 1 2 1 2 2 3 3 3 2 3 1 12 3 3 5 5 6 7 8
27 25 24 22 19 18 22 10 17 15 5 4 3 7 8 5 7 5 1 4 2 2 3 1 1 2 2 3 1 3 3 3 2 5 2 4 6 10 9 5 5 3 5 7
27 25 23 22 18 14 15 18 11 10 4 4 4 4 6 8 6 4 4 1 2 2 3 3 1 1 0 2 2 2 2 3 3 1 3 5 6 7 7 6 5 4 6 7
25 24 23 23 22 19 20 14 10 9 3 4 1 5 5 4 9 7 9 7 5 4 2 2 2 1 1 1 2 3 2 2 3 3 5 6 6 5 6 7 9 10 11 9
25 25 24 24 23 24 27 25 18 10 5 4 3 2 6 5 9 8 8 7 3 2 2 2 1 1 1 1 1 2 2 2 0 1 5 2 4 3 5 6 6 6 7 7
25 24 23 24 23 18 8 4 9 11 5 4 3 2 4 4 7 9 6 4 2 2 2 1 2 2 2 2 2 2 3 3 1 3 4 7 8 6 7 8 7 10 11 9
24 22 20 17 12 9 8 4 4 6 5 3 3 2 3 5 5 3 3 4 2 2 1 1 0 1 2 1 2 6 6 8 9 9 9 5 2 4 9 13 12 13 13 11
24 26 25 24 20 14 10 10 10 7 7 3 3 1 2 3 2 2 2 2 2 3 1 1 0 1 1 2 6 8 8 9 5 4 7 7 12 11 8 11 10 7 6 7
24 25 21 15 8 4 5 12 9 12 6 3 2 4 3 2 2 1 2 2 2 2 1 1 2 1 1 0 5 8 9 4 8 7 9 9 9 7 6 6 5 6 5 6
24 6 7 3 3 17 7 3 3 4 3 3 2 1 3 3 1 1 2 1 1 1 1 1 1 1 2 2 4 5 4 7 10 9 5 6 6 6 5 5 6 7 6 7
3 4 2 6 10 2 2 2 3 1 3 1 1 1 3 1 3 2 0 2 0 1 2 2 1 2 4 5 6 4 7 9 7 6 6 5 8 8 8 7 8 8 8 6
7 15 7 4 2 2 4 2 1 1 2 1 3 2 2 2 3 3 1 2 2 1 1 1 2 2 5 7 7 7 9 10 10 11 12 13 12 11 12 10 10 9 8 7
6 5 3 2 3 4 3 4 1 1 2 3 2 2 2 2 3 2 1 2 3 1 2 3 3 3 6 7 7 7 9 12 12 11 13 14 14 11 12 12 11 9 7 5
3 3 4 3 1 2 3 3 3 3 3 4 3 3 2 1 2 2 4 3 1 1 1 4 2 5 7 6 6 7 4 9 11 11 12 12 14 14 12 11 9 5 3 2
3 3 3 1 2 2 1 3 1 1 2 2 3 3 2 1 3 1 1 2 1 4 4 3 2 8 8 8 6 7 6 9 11 13 14 15 14 13 11 8 5 3 2 1
2 2 2 2 1 2 1 1 1 2 2 2 3 3 3 1 3 3 4 3 4 4 3 2 3 6 6 6 5 11 15 15 15 14 15 14 12 11 8 6 4 2 0 2
2 2 1 1 0 2 2 1 2 2 1 2 3 3 5 1 2 1 3 4 3 2 1 2 2 7 7 10 13 16 16 16 16 15 12 11 9 6 3 1 1 3 5 7

GFSNW_925_spd_117.txt.gz
Wind_Speed
64 61 57 67 62 57 41 10 5 23 33 6 2 3 5 5 6 3 4 4 3 5 5 4 2 3 4 3 1 3 0 4 6 14 17 6 6 11 7 4 2 1 3 3
68 67 73 75 72 65 30 5 4 18 19 6 6 3 4 3 5 5 5 4 3 3 5 2 4 3 4 4 3 2 0 2 7 6 2 9 5 8 11 7 3 3 2 4
70 75 84 80 71 54 30 5 6 3 3 2 8 6 5 5 2 4 5 5 5 3 3 3 2 3 3 3 4 8 4 3 1 1 4 6 11 17 11 4 2 5 7 6
75 83 81 76 69 52 27 3 4 9 13 9 5 3 6 9 5 2 4 3 5 6 3 3 3 4 4 3 1 3 1 2 5 6 9 12 15 17 17 11 4 4 6 6
83 82 80 74 70 46 8 6 5 3 16 11 10 5 7 12 5 5 5 6 8 5 5 5 5 4 2 5 2 1 1 1 2 3 6 0 8 16 13 10 13 12 11 8
76 75 74 69 57 37 5 4 3 7 11 10 9 6 8 9 9 4 5 8 6 6 6 5 6 7 6 7 5 2 1 2 2 2 3 4 2 8 9 11 14 5 6 5
69 69 68 61 48 20 8 9 5 5 6 11 9 9 5 14 5 7 4 5 4 2 1 3 2 5 9 8 10 10 2 4 2 3 3 2 4 3 10 15 11 8 8 7
57 62 62 48 28 11 24 10 4 4 9 9 9 13 8 10 6 4 5 2 2 2 2 0 1 2 2 2 5 9 9 2 3 3 2 4 4 3 2 4 6 9 4 4
46 46 40 36 16 23 25 16 10 4 9 3 10 11 9 6 4 3 3 2 1 2 1 1 2 2 2 3 4 5 6 3 2 2 3 4 3 5 4 4 3 8 7 4
38 38 32 29 19 19 17 9 9 8 5 1 4 4 6 4 5 4 3 2 2 1 2 2 1 2 0 2 1 2 1 1 2 3 1 3 7 8 3 3 3 4 6 8
36 33 29 25 22 20 21 11 10 8 4 3 3 4 5 4 3 4 4 3 1 2 3 1 2 2 2 2 1 1 1 1 1 1 0 2 12 1 1 6 6 6 5 7
35 32 28 23 18 17 21 12 24 21 7 4 9 17 11 6 7 6 2 3 2 2 3 1 2 2 1 1 2 3 1 2 1 3 3 4 5 9 7 4 8 6 7 7
29 28 25 23 20 17 25 24 21 20 6 5 5 5 9 13 11 6 4 0 4 3 1 3 2 3 1 1 2 2 2 1 2 4 4 7 6 9 9 9 8 8 9 9
27 25 23 21 21 27 31 18 14 15 4 4 3 5 6 7 12 16 13 9 7 5 1 2 2 2 1 2 2 2 2 2 3 3 6 7 7 8 8 9 10 11 11 10
28 27 27 27 27 29 32 31 21 11 5 4 3 4 8 10 13 16 14 13 4 2 2 2 2 1 2 2 1 2 2 1 1 1 6 4 4 6 6 8 8 7 8 10
31 31 34 30 23 22 16 4 15 18 24 5 3 1 3 5 11 13 10 6 3 2 2 2 1 1 1 2 2 2 1 1 1 4 4 9 10 7 9 9 8 11 12 11
29 27 21 17 14 14 7 4 6 8 8 3 4 3 2 6 4 3 3 5 2 2 2 1 1 1 1 1 2 6 5 7 10 12 13 8 6 5 10 13 12 12 13 11
25 24 25 23 24 20 15 18 12 9 10 3 3 3 3 1 2 2 2 2 1 3 2 1 2 1 1 2 9 10 11 11 8 3 2 7 14 13 10 11 9 8 7 8
30 26 20 12 11 5 3 9 14 17 8 3 2 4 4 1 2 2 1 1 2 1 1 1 1 0 2 4 12 12 12 6 10 10 11 11 11 10 8 7 5 6 6 7
17 7 7 3 4 9 3 4 4 5 3 3 3 1 4 2 1 1 2 1 1 2 1 2 1 1 2 0 3 6 6 12 14 12 7 8 8 7 6 5 5 7 6 6
5 3 2 10 5 3 3 3 3 1 3 2 2 2 5 1 2 2 1 2 0 2 2 1 1 2 4 7 8 6 10 12 6 5 6 9 9 9 8 7 8 9 8 6
8 16 9 3 3 3 5 2 1 2 3 2 3 2 2 2 2 3 1 2 0 2 2 2 2 2 8 11 10 8 9 11 10 9 12 13 14 12 12 12 11 9 10 9
5 4 3 2 3 5 3 3 2 2 3 3 3 3 2 2 2 2 1 2 1 1 1 2 2 4 9 10 9 8 10 13 14 13 14 15 15 13 14 14 13 13 11 8
4 3 4 3 2 2 2 1 2 1 3 5 5 3 2 1 2 1 3 1 2 1 1 3 2 7 9 9 8 9 7 10 11 13 15 16 17 16 15 15 13 11 9 7
3 3 3 2 0 0 1 1 2 1 3 3 3 3 2 2 3 1 3 3 2 3 3 2 1 9 9 9 8 8 8 10 11 14 15 17 18 18 15 12 10 9 8 6
3 4 3 2 2 2 2 2 3 2 1 1 2 3 3 2 3 2 3 4 4 2 2 1 4 8 7 8 7 10 14 14 15 15 16 17 16 15 12 10 8 7 5 3
3 2 2 1 2 1 1 2 2 2 1 2 2 3 2 3 2 0 3 3 2 1 1 1 3 8 8 9 12 15 15 15 16 16 15 15 13 12 10 6 5 4 3 3

GFSNW_925_spd_123.txt.gz
Wind_Speed
35 33 29 26 28 21 31 8 5 23 37 4 4 10 7 9 13 12 5 8 7 10 8 11 1 7 4 7 5 5 2 4 6 7 6 3 5 6 10 5 8 6 5 3
39 37 34 31 32 36 19 6 3 18 24 10 13 11 14 12 15 19 13 8 6 7 4 5 5 6 4 6 6 2 6 5 6 11 9 5 3 7 10 13 12 15 9 4
42 40 40 38 38 47 31 4 5 3 4 12 19 22 15 16 20 17 9 9 8 8 8 7 9 10 8 8 7 5 2 6 8 7 6 2 3 8 9 7 4 3 4 7
47 45 45 46 46 54 34 5 8 12 9 13 13 21 13 20 13 12 12 6 9 11 7 11 7 11 10 9 6 6 4 4 7 11 3 3 3 2 6 6 8 4 7 5
48 48 48 51 54 55 32 8 12 14 11 24 22 21 20 27 23 18 18 7 15 13 7 10 11 13 10 7 9 11 4 1 2 5 13 11 2 1 5 2 5 8 9 6
54 56 60 61 64 62 18 31 30 13 15 23 20 22 24 26 22 18 17 15 14 17 14 11 1 8 5 1 8 9 6 3 3 4 7 6 9 7 5 5 4 3 3 6
70 72 73 75 79 86 32 32 21 11 13 20 24 26 25 23 23 12 12 18 17 8 10 8 3 4 7 9 10 8 5 3 3 5 3 5 5 7 7 9 5 7 9 8
72 69 71 84 92 94 58 32 21 13 11 18 23 24 25 18 16 18 18 15 8 12 10 6 6 5 6 11 12 12 10 4 3 4 7 5 6 9 6 4 4 2 6 9
54 54 57 64 96 95 59 39 33 12 12 16 23 24 24 15 19 15 9 9 9 10 5 5 8 7 7 7 8 8 9 8 4 4 6 4 6 5 2 1 6 4 5 7
24 38 47 70 94 70 44 27 31 16 7 15 21 20 18 13 13 9 13 10 6 7 7 7 6 7 4 8 10 7 7 8 11 9 8 6 3 3 3 6 5 7 5 7
52 57 65 74 67 49 44 19 22 18 4 7 12 13 16 11 13 9 13 7 4 6 8 7 4 4 6 3 1 9 10 7 5 6 6 10 5 4 3 8 11 9 10 11
53 58 60 57 52 45 43 20 24 27 6 6 16 15 7 7 16 8 14 2 16 6 7 4 3 3 3 8 5 5 4 3 2 5 4 5 3 7 9 8 10 9 11 11
46 48 52 48 45 36 34 30 26 29 13 9 9 10 10 8 11 12 7 5 4 3 2 3 1 4 5 6 3 6 2 1 3 6 5 7 7 7 9 9 9 9 9 10
44 47 44 41 40 32 35 26 29 27 8 8 7 10 9 7 9 7 5 14 6 7 4 3 3 3 3 2 0 3 1 7 6 4 7 9 7 7 8 10 8 9 8 9
33 34 33 38 41 37 32 17 12 15 6 9 11 21 14 14 17 18 17 15 10 7 4 3 3 4 3 2 2 3 2 4 3 1 13 2 11 7 8 9 8 8 8 9
35 42 44 46 43 40 31 6 17 23 36 9 5 6 10 15 16 15 12 8 4 1 3 3 2 2 3 4 3 5 4 4 1 4 9 12 12 10 10 8 8 9 9 9
36 36 32 28 25 15 6 6 12 15 17 5 6 5 3 9 10 8 6 5 2 2 3 1 3 5 3 2 2 8 7 7 13 14 16 12 12 7 12 11 11 10 10 10
35 36 35 33 31 24 17 16 14 9 11 4 5 5 7 5 5 4 0 3 3 2 2 2 3 4 1 2 6 11 11 12 14 11 5 12 13 14 12 13 12 9 9 11
33 32 27 19 12 6 6 15 13 14 8 4 3 9 5 4 5 4 3 0 2 1 2 2 2 3 3 6 11 13 15 11 11 11 14 14 15 14 12 10 9 9 9 10
13 9 8 4 4 6 2 3 3 4 3 4 6 6 6 9 5 2 4 0 3 4 2 4 2 3 3 8 11 12 8 12 14 15 15 14 13 12 11 9 9 11 11 10
5 3 3 7 3 2 3 3 3 2 4 3 1 10 10 4 5 5 2 3 2 4 3 3 3 3 7 10 10 11 11 14 11 10 12 13 13 12 11 10 12 13 13 12
8 13 9 4 3 3 5 3 2 2 4 5 8 9 8 4 1 3 2 2 2 2 4 2 3 4 12 12 11 12 12 13 9 11 12 12 14 14 14 15 15 14 13 12
5 4 4 2 4 4 2 4 3 4 4 4 7 7 4 4 3 2 2 3 2 3 3 3 3 8 11 12 11 11 12 12 11 11 12 14 15 15 16 17 14 15 13 11
4 4 5 3 3 4 3 4 6 3 8 10 9 5 3 3 2 1 3 2 4 3 3 3 5 9 10 9 10 11 9 10 12 13 16 16 15 15 15 15 15 15 13 10
4 4 4 4 3 5 5 5 6 7 9 8 7 4 4 3 3 1 3 3 4 4 1 3 5 10 10 9 10 11 11 11 13 14 15 15 15 15 15 12 12 11 12 10
4 6 4 2 6 5 5 6 5 3 5 3 3 3 3 2 3 3 3 3 3 2 4 3 7 8 8 9 10 12 14 14 14 13 15 15 14 14 14 12 10 10 10 9
4 3 4 4 5 4 3 5 4 0 2 2 2 3 2 3 2 3 0 1 3 3 3 4 7 10 11 11 13 14 15 15 15 16 15 15 14 14 13 11 10 9 8 6

GFSNW_925_spd_129.txt.gz
Wind_Speed
18 19 16 15 17 21 20 7 3 17 27 3 2 7 4 10 16 11 9 10 9 6 7 4 2 5 2 10 9 3 4 3 4 9 15 13 13 6 5 3 3 1 2 3
22 22 19 21 22 28 15 4 2 18 19 7 9 4 8 12 11 9 3 6 7 3 1 1 6 5 3 6 5 2 2 3 4 7 2 2 3 5 5 4 3 4 2 3
24 24 26 25 27 30 17 4 3 2 7 4 5 15 15 16 6 14 14 12 7 4 2 1 3 2 1 4 3 3 3 2 5 2 4 3 4 7 6 4 2 3 4 5
25 25 27 28 30 33 22 2 5 6 7 12 9 6 7 19 13 12 8 7 12 6 3 3 5 4 2 2 5 1 0 4 7 7 7 9 11 7 4 4 5 5 2 3
31 28 30 31 31 34 21 5 4 4 3 15 17 19 15 17 10 11 14 18 13 11 10 8 5 7 5 4 8 8 5 5 1 5 8 11 13 10 8 7 5 2 4 3
34 32 33 34 34 37 8 19 12 2 7 12 11 17 19 14 11 13 21 13 10 11 12 6 2 3 3 5 7 9 4 4 2 4 4 7 6 9 9 6 5 6 7 4
36 37 37 37 37 41 21 14 8 4 7 11 17 12 16 20 23 18 9 13 9 5 9 7 4 5 8 11 13 7 5 8 2 3 6 3 2 4 6 10 8 10 10 9
39 40 41 40 42 43 38 21 15 6 11 13 12 18 14 17 19 22 16 9 4 9 6 3 2 2 4 8 8 9 6 4 2 2 2 3 1 2 1 5 5 8 11 12
40 41 42 42 45 47 42 39 28 9 8 16 18 14 20 11 8 8 11 5 10 7 3 1 6 6 7 6 5 18 10 6 3 1 3 3 1 6 10 6 2 6 12 15
42 43 44 45 48 52 47 34 40 16 9 13 7 13 10 10 6 3 4 5 1 5 3 4 4 5 7 4 7 5 9 4 10 6 4 1 2 3 5 2 3 4 7 12
46 47 48 50 51 55 50 46 37 32 8 7 14 20 9 6 13 5 6 4 3 6 5 5 4 4 5 8 8 7 10 8 4 4 3 7 3 2 3 2 8 11 12 13
51 52 51 52 55 56 56 27 41 35 12 2 20 21 20 21 25 6 9 5 8 5 4 4 3 4 2 2 2 9 4 4 4 2 2 3 3 3 7 9 9 8 11 12
58 56 57 61 64 63 65 49 34 32 11 6 4 3 7 19 21 28 5 2 6 3 3 1 2 4 2 2 3 4 2 5 4 4 4 5 5 7 9 10 11 10 11 11
51 55 61 70 72 70 69 52 44 39 5 3 2 4 16 12 22 13 9 8 7 5 3 4 3 2 2 1 1 3 3 5 6 4 7 7 6 6 8 10 9 11 11 11
40 61 70 66 72 74 71 54 47 48 8 3 2 1 5 8 15 5 16 3 3 3 1 3 3 2 3 2 3 2 2 5 4 3 11 4 10 10 10 11 10 10 9 9
28 27 49 68 72 78 57 9 44 52 17 3 3 2 2 7 11 6 4 10 3 3 3 3 0 1 3 3 2 2 4 6 3 4 6 10 14 10 11 11 11 12 11 11
62 63 58 65 72 57 16 9 31 52 20 3 3 3 2 17 15 6 2 5 3 3 2 2 4 2 3 2 3 6 6 12 13 14 17 9 12 7 12 14 14 16 14 15
57 60 65 63 55 49 26 46 46 39 8 3 3 3 2 5 3 2 1 2 2 3 2 2 3 2 2 2 7 10 10 13 13 12 4 12 12 15 11 14 14 10 10 14
48 51 48 46 35 12 17 34 23 15 8 4 2 4 4 4 3 3 2 2 2 2 1 2 3 1 2 8 12 13 13 7 10 9 11 12 14 13 11 10 10 10 9 12
25 22 8 4 5 32 28 9 3 4 3 2 3 3 4 7 3 2 3 2 3 2 4 1 2 1 2 11 10 11 8 11 11 14 13 13 10 11 9 8 10 13 11 16
7 4 5 16 11 5 4 3 4 2 3 2 3 9 9 3 4 3 2 3 2 3 3 4 1 1 1 12 10 8 10 10 9 8 8 10 10 9 7 9 16 19 19 17
12 15 13 5 3 3 6 2 1 4 4 3 9 8 5 3 4 3 1 2 2 2 2 3 1 2 9 11 9 8 9 13 10 15 11 17 17 17 16 16 17 17 20 21
8 7 5 3 3 6 5 4 2 3 3 5 6 6 4 3 3 2 3 3 2 1 2 3 2 5 9 9 6 7 14 16 14 15 19 21 19 21 23 20 22 24 22 19
4 4 6 4 4 4 2 2 3 3 7 9 6 3 3 2 3 2 4 2 3 2 2 3 2 8 6 7 6 11 6 11 12 14 18 19 23 21 22 24 24 23 22 19
4 4 4 4 1 2 2 2 6 7 5 4 4 3 3 2 3 1 3 2 2 3 3 2 5 8 9 10 9 10 8 7 11 16 16 19 22 22 21 19 19 21 21 19
4 6 4 2 3 3 4 6 7 2 2 2 3 3 3 1 4 2 4 5 2 2 2 3 7 8 9 10 9 10 14 14 16 19 19 21 21 21 22 18 18 18 19 18
4 3 3 3 3 4 3 3 2 2 3 1 3 4 2 3 2 2 3 2 2 4 2 3 7 8 9 10 13 14 16 16 17 18 18 19 20 24 21 16 16 16 14 13

GFSNW_925_spd_132.txt.gz
Wind_Speed
17 18 18 18 18 21 19 7 2 14 22 3 2 4 5 2 4 2 2 3 5 4 3 4 2 6 3 3 3 3 1 1 5 11 15 13 8 10 4 3 4 1 2 4
20 19 21 20 21 28 15 3 2 12 7 6 5 2 3 4 2 0 1 3 6 3 7 1 5 4 3 3 2 6 5 2 4 6 2 4 5 8 8 3 2 4 4 5
24 25 23 24 24 29 15 4 4 1 3 1 6 6 6 5 4 7 6 5 4 2 3 4 3 1 3 1 2 6 3 3 5 4 3 2 5 6 1 4 0 2 4 4
29 29 27 27 27 31 17 2 5 5 7 13 10 6 4 8 7 6 8 4 9 5 6 5 5 5 3 1 6 3 4 5 3 6 8 9 13 15 11 10 10 6 5 4
34 31 30 34 31 31 15 4 4 1 2 11 16 11 8 14 6 7 7 10 8 8 11 8 9 6 5 6 5 7 4 4 2 17 11 11 15 16 15 15 5 3 3 4
39 34 31 34 37 35 8 10 5 5 7 7 13 17 16 6 8 9 16 11 6 13 16 9 6 5 4 4 4 7 5 3 2 10 11 7 7 10 11 4 4 6 7 6
41 40 35 35 34 39 16 12 6 3 4 10 14 12 15 16 16 15 4 10 11 5 3 3 3 2 2 3 8 8 5 6 3 3 3 4 6 4 6 10 7 6 4 11
44 42 40 35 35 37 30 13 11 4 5 7 12 13 6 14 17 17 16 17 3 7 4 3 2 4 5 4 10 9 9 4 4 5 5 4 3 1 2 4 4 7 11 10
41 42 40 42 38 37 31 28 16 4 5 13 8 8 16 7 5 3 7 6 8 4 3 2 5 4 4 4 4 11 7 7 6 1 3 3 3 2 5 3 3 9 11 15
40 41 40 42 39 38 31 18 31 6 5 5 7 9 8 3 4 1 1 4 2 3 2 2 4 4 6 5 5 2 7 5 14 7 4 5 2 2 5 2 3 4 14 16
42 43 44 44 44 42 35 31 27 25 2 2 13 17 8 2 6 5 3 3 2 2 4 3 4 4 5 5 9 4 8 6 6 4 3 9 2 1 5 1 6 4 5 6
43 44 45 46 47 45 38 19 30 26 7 3 20 24 23 21 21 5 2 3 5 5 3 4 4 3 3 4 7 2 6 5 4 3 4 2 2 2 1 4 5 4 8 10
44 45 46 49 47 46 45 26 21 26 9 5 14 10 19 19 28 22 6 3 6 5 5 3 1 3 3 2 4 3 4 3 3 4 3 6 5 6 5 6 10 11 10 11
48 49 49 49 49 49 45 39 35 33 3 4 2 17 28 34 20 25 28 10 5 5 3 2 2 2 1 3 2 3 4 4 6 2 4 5 6 5 10 11 12 13 11 12
52 52 52 52 51 50 46 39 38 38 14 3 2 3 10 13 12 26 25 17 5 3 3 2 3 3 2 2 2 2 2 5 4 5 10 4 8 10 12 11 11 11 11 11
54 56 56 54 53 51 40 10 34 42 29 1 3 2 3 3 7 11 9 6 3 3 2 4 3 2 3 3 2 2 2 2 3 4 11 5 12 10 11 10 13 12 11 12
63 64 61 60 57 59 30 7 19 48 33 4 2 2 2 10 5 1 3 4 3 3 3 3 3 3 4 2 3 5 5 7 10 14 16 9 10 6 13 14 14 16 15 15
74 67 55 64 67 47 43 18 27 48 16 2 2 3 4 5 2 2 2 3 3 3 3 2 3 1 2 2 2 9 8 10 11 10 3 9 11 15 12 15 15 10 11 15
55 70 63 59 49 15 25 35 49 36 5 4 3 3 3 4 2 3 1 2 1 1 2 2 3 1 3 5 11 11 12 7 9 8 9 12 13 13 11 9 11 11 10 13
79 67 13 5 15 44 49 28 7 6 6 4 4 3 3 6 3 0 3 2 3 2 4 2 2 3 3 8 11 10 9 8 12 12 11 14 14 11 9 9 10 14 13 13
23 5 9 48 59 17 3 3 4 5 3 2 3 7 10 0 4 3 2 3 2 2 3 4 2 3 4 7 10 9 7 12 13 10 9 10 11 11 9 8 14 17 19 17
20 24 23 11 3 3 6 3 3 3 5 3 9 9 10 3 3 3 1 2 2 4 2 3 3 3 5 10 11 7 7 8 8 17 13 15 16 17 15 15 16 18 20 25
9 5 5 4 4 7 5 4 1 3 2 6 9 9 4 2 3 3 3 3 4 1 2 3 3 3 6 8 7 7 9 13 13 12 18 20 18 21 22 19 22 25 24 23
5 5 7 4 3 3 2 2 4 3 11 13 9 3 3 2 3 2 4 3 2 1 1 4 2 6 6 6 6 8 6 9 10 12 17 19 21 20 21 25 26 26 25 23
5 4 5 4 2 2 2 0 6 8 9 8 4 3 3 2 3 1 3 3 3 5 4 2 3 8 9 8 7 9 8 8 7 15 15 18 20 21 21 23 24 24 25 24
4 6 3 2 4 7 6 10 10 2 3 3 3 4 4 2 3 3 5 5 5 3 2 3 6 8 7 7 8 7 11 11 14 17 19 21 21 21 23 21 21 24 25 23
5 3 2 2 3 4 3 3 2 1 3 2 3 3 4 3 2 2 2 3 1 3 4 4 6 9 9 8 12 12 14 14 16 19 20 20 21 23 21 16 21 21 21 19

GFSNW_925_spd_135.txt.gz
Wind_Speed
23 23 22 21 19 21 21 6 2 6 13 3 2 6 4 3 4 2 1 1 4 4 2 2 1 6 5 3 2 2 2 3 5 5 14 10 4 2 3 3 3 1 3 5
25 25 22 23 24 28 12 3 2 4 3 4 4 1 2 1 2 2 3 4 5 2 6 1 6 4 4 5 5 5 4 1 4 8 1 5 5 3 3 2 2 2 2 4
26 25 25 25 27 31 16 3 4 1 2 2 5 4 4 3 4 5 3 2 2 2 4 5 3 4 3 1 2 3 2 4 6 9 6 1 4 7 5 3 2 5 6 5
29 26 26 27 26 32 16 2 4 3 7 8 4 5 5 10 5 4 4 2 7 7 5 3 5 5 3 2 4 3 4 6 5 6 7 7 11 14 14 11 12 6 6 6
30 30 28 28 27 27 15 4 4 1 0 9 15 12 6 7 7 4 5 6 6 7 7 8 5 4 4 6 2 3 1 4 3 4 8 12 18 16 18 14 15 14 12 12
32 33 29 30 30 29 10 6 2 4 5 9 11 16 8 7 7 5 6 4 5 9 9 7 11 10 6 5 6 6 4 3 1 12 8 11 10 16 14 4 5 9 10 6
31 34 34 36 36 38 20 12 6 3 3 9 14 8 15 10 9 7 1 5 6 5 1 2 0 3 6 6 6 6 6 4 3 7 5 11 7 3 4 7 6 6 3 5
31 33 36 38 37 41 29 13 7 3 5 7 7 8 7 10 12 15 12 13 5 3 3 2 2 3 4 6 8 9 9 5 2 4 8 9 8 3 3 4 5 6 7 8
33 34 38 40 39 39 32 29 18 1 4 8 8 11 8 5 5 1 6 7 6 4 3 3 5 4 3 3 4 8 10 11 8 3 5 3 4 3 3 3 4 9 10 14
36 37 38 43 43 38 32 16 30 2 1 3 7 5 7 6 4 2 3 1 2 4 3 3 3 4 4 4 4 2 3 1 9 6 5 6 3 3 2 3 4 4 10 14
37 38 39 46 45 34 34 26 22 19 1 4 4 6 5 3 4 4 3 3 1 2 3 3 3 4 5 4 4 5 5 6 3 3 4 8 2 1 5 2 3 1 5 9
38 39 40 39 48 44 32 13 25 19 4 3 4 7 16 12 6 4 2 2 2 3 2 2 3 4 2 5 4 5 5 5 2 5 4 0 1 2 2 3 4 2 5 7
37 37 39 41 42 44 35 22 23 16 3 3 4 7 15 16 15 14 4 2 3 2 4 3 4 4 3 3 7 3 1 3 3 2 4 4 3 2 2 2 4 6 9 12
37 37 38 39 38 39 34 23 22 19 4 4 5 5 21 28 22 14 12 15 7 3 3 2 2 3 3 3 4 4 3 7 6 3 3 2 6 5 6 9 9 11 10 10
39 38 39 41 40 38 31 26 23 25 11 2 3 4 12 16 25 31 26 19 6 3 2 3 4 3 2 3 1 3 5 5 5 6 8 4 3 10 11 12 11 11 13 10
41 39 39 40 39 36 23 4 27 31 27 2 3 4 3 14 20 16 13 16 5 3 3 3 3 4 3 3 3 4 5 5 5 3 8 3 9 11 9 11 11 10 11 14
43 42 41 41 40 39 21 4 3 34 27 3 3 4 3 8 5 2 2 11 2 3 3 2 3 2 5 3 3 4 5 4 4 11 12 6 8 5 8 13 13 16 15 17
48 46 44 44 43 34 30 23 4 37 19 4 3 2 2 3 2 2 1 3 3 2 3 2 3 2 2 4 2 5 6 8 8 6 2 7 10 13 11 15 16 11 11 14
52 48 44 35 25 13 27 44 18 27 9 4 4 5 4 4 2 3 1 1 2 2 3 3 4 3 5 5 5 8 9 8 10 4 8 11 13 13 13 12 11 12 11 13
52 49 13 5 20 27 26 11 3 5 4 2 4 3 2 4 2 2 3 2 2 2 4 2 3 4 4 4 7 10 11 8 13 11 9 11 12 12 12 11 10 13 13 16
33 5 5 15 40 18 6 5 5 4 6 5 4 4 5 3 2 3 2 3 3 3 4 4 2 3 5 7 9 8 8 12 10 5 7 10 10 11 11 10 14 16 18 17
19 24 38 34 6 4 7 6 4 5 7 5 10 5 4 1 1 3 2 2 1 4 1 2 3 3 4 9 9 9 9 9 9 14 11 13 14 16 15 15 15 18 22 24
41 9 4 5 3 6 7 9 3 4 4 5 8 9 4 3 2 2 2 3 4 1 2 3 4 2 4 7 8 7 8 12 11 8 14 17 16 19 18 17 20 23 24 26
5 4 5 3 1 3 4 4 5 3 9 15 13 3 3 2 2 2 3 3 2 2 2 5 3 5 6 6 6 8 7 8 10 8 15 17 19 15 17 22 25 26 25 26
4 4 4 2 1 1 1 2 5 7 11 11 5 3 3 2 4 2 2 2 4 5 4 3 2 6 8 7 5 8 8 7 8 13 13 16 20 19 18 20 23 24 26 25
4 5 3 3 5 5 5 10 12 4 5 3 4 3 3 2 4 3 5 5 5 3 1 0 3 4 5 6 6 6 9 11 12 16 18 19 19 18 20 19 19 21 24 24
4 3 2 1 3 5 4 6 5 0 4 3 3 4 5 3 2 2 3 4 1 0 2 2 2 7 8 7 6 11 12 12 13 16 16 16 17 20 20 15 16 19 21 22

GFSNW_925_spd_138.txt.gz
Wind_Speed
26 24 23 21 20 19 18 5 2 4 13 2 2 5 5 1 2 1 2 2 1 4 4 2 2 5 3 0 2 2 2 3 3 7 6 5 5 2 3 3 1 3 2 5
26 25 25 25 23 25 13 3 1 0 0 7 5 1 1 1 2 1 1 3 3 2 6 1 5 3 4 3 2 1 1 2 4 5 2 4 4 2 4 2 2 4 2 5
27 27 27 26 25 29 14 3 3 1 0 2 6 5 3 5 2 3 1 0 1 2 3 2 2 2 2 2 4 3 1 4 6 7 7 4 4 3 4 4 3 4 10 17
27 28 29 28 29 30 14 2 4 3 6 9 4 6 7 7 5 3 4 3 5 5 2 2 5 4 3 2 3 3 3 5 4 6 7 7 13 8 9 14 14 12 16 17
26 29 30 29 29 30 10 4 3 1 1 11 10 8 6 6 5 4 4 4 4 5 6 8 2 1 2 5 1 4 2 3 3 4 7 10 15 13 15 21 18 15 17 23
28 27 28 27 31 30 6 5 2 3 4 6 10 12 5 7 7 5 5 3 3 3 7 6 8 7 6 6 4 4 2 3 2 12 5 8 11 9 15 6 6 5 8 8
31 29 31 28 30 33 8 4 5 3 2 5 11 6 13 7 8 6 0 4 5 4 6 4 2 4 6 7 8 7 6 4 2 7 3 7 8 4 6 6 8 7 1 3
26 27 30 31 28 30 25 12 2 2 3 5 4 6 7 9 7 6 5 5 5 1 5 4 4 2 3 6 9 11 7 4 2 4 6 11 11 9 5 4 7 5 7 7
25 25 28 33 30 26 26 22 16 1 3 7 7 8 6 4 4 2 5 5 7 4 2 2 3 4 3 2 4 3 6 4 4 3 6 6 6 3 0 3 6 2 6 10
27 27 28 30 29 30 24 11 23 5 2 3 7 5 8 5 3 2 3 2 3 3 3 4 4 3 3 3 3 4 3 2 8 9 9 6 5 4 2 2 6 1 6 10
29 29 30 29 30 32 27 20 19 17 2 3 1 5 5 4 4 4 3 3 2 2 4 3 4 3 4 2 4 4 6 5 4 3 5 8 2 2 6 2 1 2 3 6
32 30 29 31 30 31 30 6 22 19 2 1 4 8 8 5 11 5 1 2 2 2 2 1 1 2 1 5 3 5 4 7 4 6 5 3 3 4 4 2 1 2 4 7
32 31 30 31 30 32 35 14 24 14 2 2 4 7 22 16 10 7 4 1 3 3 3 2 2 4 3 3 5 3 2 2 3 2 4 6 6 3 3 3 3 2 4 10
33 31 31 31 30 31 37 12 25 19 4 2 4 7 14 27 22 13 13 5 2 4 2 2 3 3 4 3 4 4 4 4 5 5 4 3 7 7 6 4 7 8 7 7
33 32 30 28 28 31 24 21 27 26 9 2 2 7 12 17 19 26 20 13 5 3 1 4 4 2 2 2 1 4 5 6 5 7 4 3 3 10 10 8 6 7 10 10
32 29 27 26 28 26 19 3 23 26 14 2 2 1 3 5 20 21 17 15 4 3 4 3 3 5 3 3 4 4 11 7 4 4 4 3 5 9 8 7 8 9 8 13
32 30 29 28 29 28 4 2 9 33 17 1 2 3 3 9 8 5 2 8 3 4 3 4 3 3 6 3 8 3 7 6 3 8 10 5 6 5 10 11 14 14 15 14
32 31 29 29 29 22 8 5 18 34 10 3 2 3 1 6 2 3 2 4 4 4 4 2 4 2 3 5 7 6 4 6 6 5 1 4 8 12 11 17 18 11 10 13
33 31 28 24 15 5 13 12 21 15 4 5 4 3 3 5 2 2 1 1 4 3 5 4 5 3 6 7 8 7 9 8 10 5 7 10 11 12 12 13 13 12 12 11
38 30 6 3 13 20 21 5 2 2 4 3 4 3 4 3 3 3 3 3 3 3 4 3 4 5 6 7 7 7 11 9 13 12 8 9 10 13 12 12 10 11 12 13
21 4 3 12 34 8 2 3 4 3 5 5 4 6 4 2 3 3 3 2 3 2 3 4 3 4 6 10 8 8 12 13 12 4 7 10 15 13 12 11 13 16 17 15
16 16 21 24 4 3 5 4 4 7 7 5 8 5 4 3 2 1 2 2 1 4 2 2 3 4 3 5 8 10 10 10 8 9 10 13 15 17 15 15 14 17 19 22
38 8 5 5 4 5 9 8 4 5 5 6 9 6 4 2 2 0 1 4 4 1 1 4 4 2 2 5 8 8 7 12 10 7 12 17 14 16 17 15 19 21 21 23
4 5 6 5 5 5 4 6 6 4 4 9 12 5 3 2 2 2 2 3 2 1 3 5 3 3 5 6 6 10 8 8 8 8 14 15 18 16 19 22 24 24 24 24
4 4 5 5 4 2 1 3 2 3 8 11 6 4 3 1 2 2 2 2 4 4 4 3 2 1 6 8 7 8 8 7 7 12 12 15 19 18 16 18 22 22 24 25
4 3 4 2 5 3 3 3 4 8 9 4 3 4 3 3 3 3 6 4 6 3 2 2 0 2 3 6 6 6 8 11 11 15 17 18 18 17 17 17 17 19 24 25
2 2 1 1 3 3 2 4 6 4 7 3 3 5 6 3 2 3 4 4 2 1 0 1 1 4 7 6 6 9 13 13 14 16 16 15 16 19 19 14 14 17 19 22

GFSNW_925_spd_144.txt.gz
Wind_Speed
33 30 28 25 23 22 20 5 5 9 22 4 2 8 11 4 9 2 2 1 2 4 4 5 3 5 2 4 5 3 2 2 8 11 8 6 9 11 9 6 7 5 5 12
35 34 31 29 27 28 14 4 3 2 6 6 6 1 5 4 7 6 3 2 1 2 3 3 4 5 2 1 2 2 4 4 5 6 6 6 6 2 3 6 6 14 13 10
36 36 34 32 30 30 18 3 4 1 1 1 8 7 10 9 2 4 3 3 3 3 3 1 5 6 3 2 3 4 1 7 9 10 7 6 11 13 12 13 8 15 19 25
37 37 37 34 32 32 16 3 5 6 10 7 7 14 14 15 7 4 4 4 7 6 5 7 6 7 5 3 3 4 4 8 11 13 14 14 15 15 17 19 20 20 26 24
34 36 38 39 33 34 12 5 4 5 3 18 17 13 13 14 11 11 8 8 9 11 11 9 6 8 7 6 4 7 5 6 3 6 14 16 18 14 19 23 22 23 27 28
40 37 40 41 37 35 6 6 2 4 7 14 15 14 11 13 13 5 5 12 7 10 10 2 2 3 3 3 6 8 7 7 6 11 8 10 14 15 17 16 15 14 17 16
43 40 40 41 42 40 6 9 7 4 5 11 14 13 14 13 16 7 7 6 9 4 4 3 3 6 8 11 13 13 9 11 8 8 10 11 1 2 10 14 18 19 19 20
45 45 40 38 41 42 14 10 3 5 4 8 9 9 14 11 9 8 5 5 3 5 4 3 5 5 5 10 18 17 16 12 7 7 10 15 18 10 6 11 13 12 9 10
39 43 41 39 38 38 20 13 7 1 6 10 12 12 14 8 10 8 7 4 7 3 3 4 5 5 3 5 6 3 14 14 9 9 7 10 2 2 3 5 14 7 6 6
40 40 39 34 34 34 28 11 18 6 2 3 9 10 13 6 7 4 5 6 6 9 6 6 6 6 4 6 8 7 7 9 14 13 11 9 7 3 2 6 2 3 5 3
45 42 38 34 34 31 25 18 20 9 1 3 1 2 5 6 7 5 6 6 3 7 8 5 5 5 7 6 9 11 10 7 6 8 9 11 5 6 5 4 1 4 7 4
37 35 36 33 32 27 26 11 14 15 4 2 1 0 2 1 6 5 7 2 8 6 7 6 3 5 3 8 6 12 9 10 6 6 5 3 5 11 7 5 11 12 9 6
35 31 33 37 36 30 19 17 21 9 3 2 3 5 7 6 5 3 5 2 2 4 3 2 1 7 2 6 9 10 8 8 7 9 8 15 16 14 11 8 10 8 7 8
31 29 27 28 28 28 23 18 21 12 4 3 4 10 11 13 9 5 1 2 3 5 2 4 4 4 4 6 7 8 7 4 8 13 16 17 14 15 12 8 6 5 5 7
29 27 25 22 23 24 16 16 16 16 3 2 2 3 13 16 20 16 11 8 5 3 3 4 4 3 5 9 11 12 12 15 11 11 11 13 13 7 5 6 7 7 9 9
24 23 23 23 24 25 17 2 8 13 7 4 3 0 6 14 13 20 21 13 7 6 4 4 4 6 5 7 13 14 15 13 14 15 16 9 4 4 6 8 8 9 8 10
26 26 24 24 25 22 3 4 6 24 13 3 3 4 3 12 12 8 6 10 5 5 3 4 8 7 5 7 17 14 15 15 18 19 11 9 9 5 8 8 11 11 9 10
25 26 25 23 21 11 5 6 14 26 6 2 3 3 5 12 5 5 5 5 5 5 6 6 8 5 6 7 13 15 19 20 19 19 13 12 2 7 10 12 13 11 10 11
26 25 22 20 7 4 6 10 24 14 4 5 4 7 5 7 6 4 4 3 4 4 6 9 6 10 10 13 16 18 17 17 16 8 10 9 10 11 12 13 13 11 12 11
26 24 5 3 10 18 21 7 3 3 3 3 4 7 5 7 7 6 5 3 4 4 7 5 6 14 23 23 23 21 19 15 8 10 10 11 11 12 14 14 12 11 12 15
9 3 2 9 29 8 2 4 6 4 5 5 5 10 7 5 7 5 4 2 3 4 5 6 5 7 14 21 25 23 21 17 15 14 6 12 10 13 14 12 13 14 16 16
12 9 16 10 6 3 5 4 4 5 5 7 9 8 6 4 2 3 5 3 3 6 5 4 4 6 11 9 10 13 13 14 15 12 10 12 10 14 14 14 14 15 16 17
21 5 4 4 3 5 6 6 4 4 6 7 8 8 7 5 3 2 4 5 5 1 4 4 4 2 2 3 2 2 5 11 12 11 12 12 12 13 16 13 14 17 16 15
3 4 5 5 5 4 3 5 6 3 5 9 10 7 5 3 5 3 5 4 2 4 3 5 3 2 4 1 2 6 7 7 9 9 12 13 14 13 13 14 17 18 16 15
2 3 5 6 3 5 7 6 7 5 9 9 6 2 3 6 5 4 3 4 5 5 4 1 2 5 2 3 6 8 8 7 8 10 10 12 13 13 12 11 13 14 16 16
1 2 3 4 7 6 5 5 6 7 7 6 5 3 4 5 3 6 8 4 6 3 2 1 3 2 3 4 5 5 7 8 10 11 12 13 12 12 13 12 11 13 15 16
4 3 3 4 2 3 3 5 7 9 9 5 4 6 6 2 4 5 4 4 1 0 1 2 2 4 5 5 7 7 10 12 12 13 13 13 12 14 14 12 9 11 11 12

GFSNW_925_spd_147.txt.gz
Wind_Speed
30 32 30 30 27 23 21 5 6 14 22 6 4 10 13 6 12 10 6 5 7 10 8 13 11 9 8 5 8 8 4 3 8 13 7 4 8 14 13 9 15 12 7 11
31 33 34 33 31 30 22 3 3 7 7 8 6 8 16 8 13 14 9 8 5 1 7 4 7 8 6 5 7 2 6 6 7 12 10 7 8 7 4 8 9 14 11 9
30 36 37 37 35 34 26 2 4 2 3 8 17 19 16 12 13 12 7 6 5 7 6 5 9 9 6 6 4 7 1 7 9 9 11 7 8 11 11 12 8 14 19 22
34 38 39 40 40 39 25 4 7 9 7 10 9 15 11 16 13 12 13 8 11 10 8 10 9 9 9 9 8 6 4 8 10 12 13 14 16 16 16 18 18 19 23 22
35 38 44 43 43 40 21 7 7 11 9 20 18 11 13 21 22 16 15 13 15 12 12 11 10 13 10 10 12 10 9 6 4 8 13 16 19 14 18 22 22 23 24 25
36 39 46 49 48 43 7 17 19 5 13 19 14 12 11 17 11 6 11 14 11 11 14 11 1 4 2 3 8 9 9 6 8 13 10 10 14 8 16 18 17 18 18 21
40 37 37 41 44 48 11 15 12 7 8 13 20 23 19 12 17 10 9 9 12 5 7 6 3 6 8 10 11 10 9 10 9 10 11 15 10 6 8 12 15 18 17 12
41 45 44 44 45 48 17 16 12 6 7 10 12 10 19 12 10 8 9 6 1 6 6 5 5 7 9 15 18 17 15 12 8 10 10 14 12 16 14 7 16 17 8 9
40 40 51 49 46 45 26 17 9 6 7 9 9 11 13 7 10 9 5 7 7 5 6 5 9 7 10 6 5 14 17 15 11 10 12 10 5 2 4 8 14 7 3 5
40 37 49 50 47 49 31 11 13 3 4 3 14 11 14 9 9 8 10 11 6 5 6 7 8 10 6 8 10 7 11 13 14 12 12 12 10 4 3 7 3 3 6 8
37 36 42 48 45 45 28 18 18 6 2 5 8 7 15 9 12 8 11 8 6 7 8 7 7 6 8 11 12 11 12 10 10 12 15 20 2 4 7 7 6 9 10 12
38 38 40 42 43 42 30 10 20 13 5 1 3 4 4 11 11 3 10 3 12 7 8 7 6 6 6 11 10 13 13 12 9 8 5 2 4 7 12 14 13 12 12 10
46 39 39 41 44 36 27 21 24 14 3 2 4 8 8 5 4 2 4 4 2 3 1 2 3 5 4 9 11 13 12 11 9 8 6 11 11 13 15 13 8 9 10 9
46 43 43 42 37 30 35 24 18 11 6 3 5 6 14 10 8 6 7 1 3 2 4 4 4 5 4 8 8 8 7 5 9 14 14 14 15 11 8 9 6 7 5 7
50 47 41 39 32 31 26 25 21 11 0 4 5 8 14 12 12 10 8 6 4 4 4 4 6 6 5 8 10 10 11 13 11 12 14 14 12 11 11 9 9 7 5 6
40 39 38 38 33 30 20 4 3 6 1 3 4 3 9 16 17 15 12 10 5 5 3 4 6 11 7 7 12 16 19 20 21 17 19 15 7 7 10 10 7 6 7 9
38 37 36 32 27 14 6 4 8 14 6 2 4 5 6 15 12 11 7 13 6 6 3 5 10 8 6 11 15 17 18 17 17 19 16 16 18 11 7 8 7 8 9 9
37 36 33 30 18 16 11 11 19 16 5 2 3 4 6 13 5 4 6 5 6 4 6 6 8 9 10 10 14 18 20 20 21 22 21 21 18 6 7 10 10 10 9 9
34 34 31 21 6 4 8 19 17 4 2 3 4 7 5 9 7 5 4 4 4 4 6 10 7 11 11 10 15 18 19 18 18 16 15 11 9 10 10 11 11 10 10 10
34 28 7 3 6 21 22 5 2 1 2 3 5 7 5 9 8 7 5 2 4 6 7 6 7 15 22 24 25 22 21 20 18 17 13 11 13 13 13 12 11 10 10 13
14 3 3 10 23 9 3 4 5 6 5 5 7 11 8 7 9 7 5 4 4 4 6 6 4 8 14 19 21 21 22 21 21 17 11 10 13 12 11 11 11 11 14 14
9 14 12 9 4 3 5 6 4 6 7 7 12 12 9 7 4 5 3 4 4 6 1 3 4 9 11 9 9 8 10 12 14 15 11 8 8 12 12 12 12 14 16 17
14 5 4 4 3 6 6 9 4 5 4 7 10 11 8 4 4 3 4 5 6 3 3 4 6 8 2 5 7 7 7 6 7 8 9 11 11 13 15 12 16 20 19 19
3 5 6 4 6 4 4 7 8 5 7 10 10 9 5 4 5 4 4 5 3 4 5 8 6 5 5 5 4 2 4 7 9 8 9 10 13 14 18 19 21 21 17 18
4 4 5 7 4 7 6 5 8 8 10 10 8 6 4 5 4 4 5 4 6 6 11 7 3 4 4 3 2 4 5 7 8 9 9 12 15 15 14 15 17 17 18 18
3 3 2 5 9 5 4 5 6 8 8 7 3 3 2 6 4 7 8 7 6 3 4 2 2 2 2 2 4 6 7 8 9 10 13 14 14 14 16 15 14 15 16 17
3 2 2 5 7 6 5 7 8 8 9 6 4 6 6 4 5 6 5 7 6 3 2 2 3 3 3 5 7 6 9 9 11 13 13 14 15 17 17 14 13 14 14 14

GFSNW_925_spd_150.txt.gz
Wind_Speed
24 25 25 26 26 23 19 6 4 14 25 6 3 8 24 12 23 13 15 9 14 17 16 15 17 17 17 11 7 6 9 6 7 13 13 16 10 9 11 4 10 8 5 8
25 25 27 28 29 30 21 4 5 10 13 9 9 13 15 22 23 12 11 13 15 6 7 3 12 13 8 6 9 2 7 4 5 10 11 13 7 11 14 9 3 8 6 5
24 27 28 29 32 36 29 4 4 3 3 10 19 18 24 22 14 19 16 15 10 7 5 8 5 8 4 3 4 8 3 6 8 8 9 5 8 13 10 9 5 10 14 16
27 27 30 30 35 39 33 5 6 7 5 13 19 19 15 24 13 20 19 14 17 12 9 14 10 9 8 6 5 5 3 6 10 12 13 13 14 14 11 15 15 14 17 15
26 28 29 32 38 38 27 4 7 10 9 17 21 17 13 19 22 8 6 13 17 14 13 13 12 11 13 9 10 10 9 4 2 4 12 14 17 11 16 17 17 18 20 19
28 28 30 33 37 44 17 19 15 3 11 17 16 20 22 20 17 17 14 21 21 17 14 12 10 2 5 11 12 13 9 7 7 12 13 14 13 9 12 16 16 16 14 16
27 28 29 34 38 49 17 17 15 8 7 13 17 22 24 17 16 16 3 8 10 3 4 8 5 3 2 3 5 5 8 11 8 9 10 14 9 14 13 15 12 15 13 15
31 29 30 34 40 52 41 18 18 6 11 12 18 21 22 19 6 4 5 8 9 9 7 4 4 4 5 11 12 13 12 10 6 8 9 13 17 12 12 12 13 9 11 10
29 31 30 30 40 45 46 30 27 7 9 11 16 15 19 8 4 6 12 13 5 3 3 4 9 7 8 9 7 20 16 11 8 7 10 7 9 3 9 5 6 8 8 7
26 27 28 30 32 43 42 24 24 6 3 1 4 8 13 11 10 6 12 8 3 5 4 5 8 11 12 13 13 6 11 11 12 9 10 10 13 6 7 6 1 4 3 7
24 29 33 33 35 40 45 17 18 6 2 5 2 4 8 6 6 6 4 8 5 4 5 6 6 7 10 13 13 11 11 8 9 12 14 15 13 1 5 3 4 6 6 3
29 30 33 37 36 44 42 13 19 8 5 2 6 4 2 17 14 5 3 5 7 6 5 5 5 7 5 11 9 13 12 8 9 9 5 5 7 6 8 11 8 5 6 7
31 29 34 38 38 43 33 19 26 11 3 2 4 4 1 3 4 5 5 3 3 4 1 2 2 5 5 8 9 11 12 10 8 5 3 6 6 4 8 7 6 6 3 4
34 29 34 35 47 48 30 29 31 15 5 3 3 8 8 4 3 3 2 2 3 2 2 3 3 4 6 7 7 4 8 10 8 8 8 10 11 8 5 6 9 8 3 4
34 34 32 38 45 42 33 30 24 18 5 3 5 5 8 7 5 6 5 4 2 2 3 3 4 7 7 7 8 8 9 9 6 5 7 8 10 7 5 10 7 9 6 6
42 42 37 42 43 40 30 3 5 9 9 4 4 3 11 12 10 9 8 5 4 2 2 3 5 9 4 4 6 11 13 15 16 13 12 13 8 11 15 8 8 7 7 7
44 46 43 37 27 22 4 3 20 16 8 3 5 5 8 16 10 10 6 8 4 4 3 4 7 7 4 5 13 14 16 17 15 15 15 16 16 10 14 7 5 6 8 8
53 47 39 32 29 20 15 23 20 9 6 2 3 4 6 15 5 3 6 5 5 4 4 4 6 6 6 7 11 16 18 19 19 17 17 17 16 17 14 9 8 8 8 6
47 39 29 19 9 5 7 16 15 11 5 3 2 6 5 9 6 5 3 2 3 3 5 8 6 6 7 8 14 17 17 17 17 17 16 17 16 16 8 10 9 9 7 6
35 16 9 3 6 28 13 4 3 5 3 1 2 5 4 8 7 6 4 3 3 4 6 5 7 12 18 21 20 17 16 17 16 17 14 13 14 6 6 8 8 8 6 8
6 4 3 18 15 3 3 4 3 2 1 3 5 8 6 7 8 5 5 4 2 3 5 5 4 6 12 17 19 20 20 20 20 18 18 14 14 8 6 7 8 10 13 10
9 19 16 6 1 3 4 4 4 4 5 6 9 9 9 5 4 4 4 3 3 6 3 2 3 7 14 7 6 9 10 9 10 12 16 14 8 8 8 10 9 13 17 21
9 5 3 4 3 4 6 8 5 5 4 4 7 9 7 4 4 2 3 3 5 3 3 4 4 7 6 8 7 8 9 11 11 10 4 14 10 13 16 11 18 21 20 22
3 2 4 4 5 5 5 7 8 5 5 7 9 9 4 3 6 3 5 4 3 4 4 8 4 5 5 5 4 5 6 7 7 10 12 13 13 14 19 21 22 23 19 20
1 3 3 6 4 4 5 5 5 5 5 7 4 2 5 4 3 4 3 4 5 5 6 6 4 5 4 4 4 5 4 4 7 8 10 11 15 16 16 17 18 19 20 19
2 3 2 3 6 4 2 3 2 2 4 4 3 2 2 4 3 6 6 5 6 4 3 4 3 3 2 1 3 3 3 5 7 10 12 14 13 14 15 17 17 17 18 18
3 0 2 3 3 5 2 5 4 6 5 5 4 5 6 2 4 8 5 6 6 5 3 2 3 4 1 3 4 3 6 7 10 12 12 14 17 18 16 11 13 14 14 15

GFSNW_925_spd_153.txt.gz
Wind_Speed
16 16 18 19 21 20 20 4 2 14 27 5 6 16 9 12 12 7 8 10 13 15 9 7 5 7 8 6 7 6 2 4 4 7 1 9 8 9 6 3 3 2 4 6
18 18 17 19 21 26 14 3 3 11 16 8 10 13 18 11 10 14 3 4 11 11 5 4 2 7 3 9 4 6 5 1 1 5 4 4 4 4 2 2 4 6 4 6
19 19 19 19 21 28 21 2 5 3 3 4 8 14 17 16 9 19 16 9 7 7 8 5 1 3 4 3 2 6 2 4 6 6 3 1 2 3 1 4 1 5 5 10
22 21 22 21 22 28 28 3 3 5 6 11 13 9 8 20 21 16 6 13 20 10 5 11 11 6 4 5 4 3 3 2 1 3 6 6 7 6 3 2 4 4 5 7
23 23 23 23 24 23 24 5 3 3 2 4 17 16 11 20 16 17 13 19 8 11 12 6 7 10 4 6 3 5 3 2 3 3 4 7 12 6 7 9 9 9 13 10
23 24 25 23 25 23 16 8 6 2 5 10 12 18 24 21 11 15 16 10 6 7 13 7 8 8 10 3 7 7 6 5 4 3 5 8 9 9 11 10 9 7 8 9
23 25 27 26 25 27 25 9 4 5 4 8 15 13 22 22 21 5 2 3 7 6 8 11 6 5 3 2 7 6 6 4 3 3 4 5 6 8 9 11 12 12 10 6
24 26 27 26 26 27 27 14 10 5 6 8 11 18 16 19 18 6 6 8 2 5 1 5 2 5 3 3 4 4 4 3 2 3 5 7 13 11 4 6 7 3 8 8
26 26 27 28 26 25 24 20 22 6 5 8 9 6 17 11 6 3 4 3 11 6 2 4 6 5 6 6 4 9 7 5 4 1 3 7 7 12 5 4 2 6 8 5
26 24 24 25 25 24 21 19 27 8 5 5 7 6 7 8 4 3 3 2 4 4 3 4 2 2 2 5 6 3 4 2 9 5 5 6 6 13 4 5 6 5 5 6
26 24 24 23 22 20 21 24 26 18 2 5 3 0 4 5 5 4 5 2 1 2 3 4 3 3 5 3 4 4 7 4 5 4 5 11 7 4 7 5 4 5 2 5
26 25 24 21 22 24 22 13 33 34 3 4 3 8 12 3 9 7 7 5 5 4 2 2 2 2 1 7 7 7 6 6 4 7 5 5 2 5 3 3 2 3 6 6
26 26 25 25 24 23 28 22 18 15 4 2 3 6 9 11 11 12 4 2 2 3 2 2 2 1 2 3 4 4 4 6 6 3 6 8 8 3 3 5 5 6 7 6
25 26 28 26 24 24 31 26 29 15 3 3 1 4 2 7 9 10 10 5 6 3 3 2 0 0 2 1 2 2 3 5 2 2 2 4 2 4 6 6 5 2 6 6
28 31 32 29 27 28 34 24 34 18 4 2 3 4 1 7 6 6 8 7 4 2 2 1 2 2 2 3 1 3 3 4 3 4 3 4 5 5 6 5 6 7 4 5
34 36 34 34 29 36 26 2 22 24 12 3 2 4 4 8 6 2 5 3 2 2 2 1 2 5 4 2 3 6 7 7 7 6 6 7 8 7 7 8 8 7 7 6
33 28 30 28 30 37 7 5 22 29 13 3 3 2 3 8 5 1 2 3 2 2 2 2 2 2 1 2 5 6 10 13 11 8 6 7 5 5 5 4 8 11 11 9
23 27 34 40 34 23 10 19 25 16 6 3 3 2 3 7 2 1 2 2 2 1 3 1 2 2 3 4 6 12 16 17 12 11 11 10 7 7 8 6 10 8 7 6
55 48 39 26 10 3 8 21 16 12 6 3 3 4 4 5 2 3 3 2 1 3 3 3 3 3 5 6 10 11 13 12 11 9 9 9 9 10 12 8 10 10 8 7
34 17 8 3 6 16 11 11 4 4 3 2 2 3 2 4 2 2 2 1 2 2 4 3 3 6 13 16 15 13 13 15 10 8 8 7 8 7 6 8 7 10 8 8
6 3 4 14 9 6 3 2 3 1 2 1 2 3 5 2 4 3 3 3 2 2 4 5 3 3 8 13 16 16 14 16 14 13 12 9 8 6 8 8 10 12 15 11
12 17 12 4 2 3 5 1 1 0 3 3 4 3 4 2 4 3 2 3 1 5 2 2 2 4 10 7 4 7 6 7 6 5 7 11 15 9 10 11 11 15 21 25
8 6 4 3 2 5 5 5 2 1 2 2 3 1 4 3 3 2 3 3 4 1 1 3 4 4 4 5 2 2 7 9 8 8 6 6 7 18 17 11 18 24 21 22
3 4 5 2 2 1 2 2 3 4 3 3 2 2 3 2 2 3 4 5 0 3 2 4 2 3 2 5 5 4 5 6 5 6 8 11 11 12 18 20 24 25 20 21
3 4 2 1 2 1 0 0 3 3 1 3 2 1 3 2 3 3 3 1 4 5 4 3 2 3 3 2 3 4 4 3 4 5 7 8 12 14 15 18 21 24 23 23
3 2 3 2 3 2 2 1 2 2 2 2 3 0 3 5 3 4 6 3 5 4 2 1 3 3 3 3 1 3 3 3 4 7 9 11 12 13 16 19 19 20 23 21
3 2 0 3 2 3 2 2 3 2 2 2 2 3 5 3 3 4 4 4 3 1 2 1 3 2 2 1 2 3 5 5 8 9 9 12 16 18 17 11 15 18 17 17